Погода в Ораз-Ауле

Россия / Чеченская Республика     43°33′22″N   45°57′28″E
темп.,
°C
ветер,
м/с
пор.,
м/с
влажн.,
%
обл.,
%
осадки,
мм/ч
давл.,
гПа
погр.,
м
6 декабря, пн
пн600:00+8з227370 0.0 101619
03:00+7зсз22665 0.0 101715
06:00+5з22734 0.0 101917
09:00+7з11635 0.0 102166
12:00+11св22585 0.0 1020363
15:00+12всв23605 0.0 1020565
18:00+9в127320 0.0 102210
21:00+7всв227932 0.0 102214
7 декабря, вт
вт700:00+6в12870 0.0 102212
03:00+5св11910 0.0 102210
06:00+5зсз22932 0.0 102215
09:00+6зюз11852 0.0 102383
12:00+10в23620 0.0 1020391
15:00+12в36585 0.0 1019631
18:00+8в499211 0.0 1018282
21:00+8в499572 0.0 1017312
8 декабря, ср
ср800:00+7вюв379548 0.0 1014234
03:00+6ю119468 0.0 101371
06:00+7ююв118968 0.0 101242
09:00+8зюз22829 0.0 1013163
12:00+11зюз22650 0.0 1011427
15:00+12зюз11581 0.0 1010399
18:00+9з22710 0.0 101111
21:00+8з33790 0.0 101231
9 декабря, чт
чт900:00+7з22811 0.0 101116
03:00+7з3679100 0.0 101197
06:00+7з51077100 0.0 1013269
09:00+9з61176100 0.0 1015466
12:00+11зсз61164100 0.0 1016755
15:00+11зсз61063100 0.0 1018744
18:00+10з51171100 0.0 1020437
21:00+10зюз51069100 0.0 1021442
10 декабря, пт
пт1000:00+10зюз4974100 0.0 1022326
03:00+10з377341 0.0 1022183
06:00+8зсз37869 0.0 1024159
09:00+9з35835 0.0 1025176
12:00+12зсз23620 0.0 1024547
15:00+13ссз23570 0.0 1023559
18:00+10св11682 0.0 102510
21:00+8в22750 0.0 102513